Corpus Christi, TX

1:18 AM CDT on June 29, 2017 (GMT -0500)
Corpus Christi International

Weather History for KCRP - February, 2012

Change the Weather History Date:

Wednesday, February 22, 2012

  Actual Average Record
Temperature  
Mean Temperature 76 °F 62 °F  
Max Temperature 85 °F 72 °F 89 °F (1980)
Min Temperature 66 °F 52 °F 27 °F (1978)
Degree Days  
Heating Degree Days 0 5  
Month to date heating degree days 110 145  
Since 1 July heating degree days 566 772  
Cooling Degree Days 11 2  
Month to date cooling degree days 55 37  
Year to date cooling degree days 116 67  
Growing Degree Days 25 (Base 50)    
Moisture  
Dew Point 66 °F    
Average Humidity 76    
Maximum Humidity 97    
Minimum Humidity 55    
Precipitation  
Precipitation 0.00 in 0.07 in 0.60 in (1923)
Month to date precipitation 3.40 1.47  
Year to date precipitation 3.85 3.01  
Snow  
Snow 0.00 in - - ()
Month to date snowfall 0.0  
Since 1 July snowfall 0.0  
Snow Depth 0.00 in    
Sea Level Pressure  
Sea Level Pressure 29.89 in    
Wind  
Wind Speed 9 mph (South)    
Max Wind Speed 16 mph    
Max Gust Speed 21 mph    
Visibility 8 miles    
Events      
T = Trace of Precipitation, MM = Missing Value Source: NWS Daily Summary

Daily Weather History Graph

Daily Weather History Graph

Search for Another Location

Airport or City:

Trip Planner

Search our weather history database for the weather conditions in past years. The results will help you decide how hot, cold, wet, or windy it might be!

Date:

Astronomy

Feb. 22, 2012 Rise Set
Actual Time 7:01 AM CST 6:25 PM CST
Civil Twilight 6:37 AM CST 6:49 PM CST
Nautical Twilight 6:10 AM CST 7:16 PM CST
Astronomical Twilight 5:43 AM CST 7:44 PM CST
Moon 7:09 AM CST (2/22) 7:22 PM CST (2/22)
Length of Visible Light 12h 11m
Length of Day
11h 24m
New Moon, 1% of the Moon is Illuminated
Feb 22
New Moon
Feb 29
First Quarter
Mar 8
Full
Mar 14
Last Quarter
Mar 22
New

Hourly Weather History & Observations

Time (CST) Temp. Heat Index Dew Point Humidity Pressure Visibility Wind Dir Wind Speed Gust Speed Precip Events Conditions
12:47 AM 68.0 °F - 64.4 °F 88% 30.00 in 10.0 mi SSE 12.7 mph - N/A   Overcast
12:51 AM 68.0 °F - 64.9 °F 90% 30.00 in 10.0 mi SSE 11.5 mph - N/A   Overcast
12:57 AM 68.0 °F - 64.4 °F 88% 29.99 in 10.0 mi SSE 12.7 mph - N/A   Overcast
1:51 AM 66.9 °F - 64.0 °F 90% 29.98 in 10.0 mi South 9.2 mph - N/A   Overcast
2:13 AM 66.2 °F - 64.4 °F 94% 29.97 in 10.0 mi South 8.1 mph - N/A   Overcast
2:47 AM 68.0 °F - 64.4 °F 88% 29.95 in 10.0 mi South 8.1 mph - N/A   Overcast
2:51 AM 68.0 °F - 64.9 °F 90% 29.95 in 10.0 mi South 8.1 mph - N/A   Overcast
3:51 AM 68.0 °F - 64.9 °F 90% 29.94 in 10.0 mi South 6.9 mph - N/A   Overcast
4:34 AM 68.0 °F - 64.4 °F 88% 29.92 in 7.0 mi South 5.8 mph - N/A   Overcast
4:51 AM 68.0 °F - 66.0 °F 93% 29.93 in 4.0 mi South 4.6 mph - N/A   Overcast
5:13 AM 68.0 °F - 66.2 °F 94% 29.93 in 2.5 mi South 5.8 mph - N/A   Overcast
5:30 AM 66.2 °F - 66.2 °F 100% 29.94 in 1.2 mi South 3.5 mph - N/A   Overcast
5:48 AM 68.0 °F - 66.2 °F 94% 29.94 in 1.0 mi Calm Calm - N/A   Overcast
5:51 AM 68.0 °F - 66.0 °F 93% 29.94 in 1.2 mi Calm Calm - N/A   Overcast
6:10 AM 68.0 °F - 66.2 °F 94% 29.93 in 3.0 mi Calm Calm - N/A   Overcast
6:51 AM 68.0 °F - 66.9 °F 96% 29.94 in 3.0 mi Calm Calm - N/A   Overcast
6:58 AM 68.0 °F - 66.2 °F 94% 29.93 in 3.0 mi SSE 5.8 mph - N/A   Overcast
7:51 AM 69.1 °F - 66.9 °F 93% 29.94 in 5.0 mi SSE 4.6 mph - N/A   Overcast
8:51 AM 70.0 °F - 68.0 °F 93% 29.96 in 5.0 mi SSW 6.9 mph - N/A   Overcast
9:51 AM 72.0 °F - 69.1 °F 91% 29.95 in 10.0 mi SSW 9.2 mph - N/A   Overcast
10:51 AM 73.9 °F - 68.0 °F 82% 29.95 in 10.0 mi SSW 15.0 mph - N/A   Overcast
11:24 AM 75.2 °F - 68.0 °F 78% 29.93 in 10.0 mi SSW 11.5 mph - N/A   Overcast
11:51 AM 75.9 °F - 68.0 °F 76% 29.92 in 10.0 mi SSW 11.5 mph - N/A   Mostly Cloudy
12:43 PM 78.8 °F - 68.0 °F 69% 29.89 in 10.0 mi SW 12.7 mph - N/A   Scattered Clouds
12:51 PM 79.0 °F - 68.0 °F 69% 29.88 in 10.0 mi SW 11.5 mph - N/A   Scattered Clouds
1:51 PM 82.0 °F 84.5 °F 66.9 °F 60% 29.84 in 10.0 mi SW 11.5 mph - N/A   Scattered Clouds
2:51 PM 82.9 °F 85.0 °F 66.0 °F 56% 29.82 in 10.0 mi WSW 9.2 mph - N/A   Partly Cloudy
3:51 PM 84.0 °F 86.3 °F 66.0 °F 55% 29.80 in 10.0 mi SW 11.5 mph - N/A   Partly Cloudy
4:51 PM 82.9 °F 85.4 °F 66.9 °F 58% 29.78 in 10.0 mi SSE 13.8 mph - N/A   Partly Cloudy
5:51 PM 77.0 °F - 69.1 °F 76% 29.78 in 10.0 mi SSE 12.7 mph - N/A   Partly Cloudy
6:51 PM 73.0 °F - 66.9 °F 81% 29.78 in 10.0 mi SSE 11.5 mph - N/A   Partly Cloudy
7:51 PM 70.0 °F - 66.0 °F 87% 29.78 in 10.0 mi SSE 11.5 mph - N/A   Clear
8:51 PM 68.0 °F - 64.9 °F 90% 29.78 in 10.0 mi SSE 10.4 mph - N/A   Clear
9:41 PM 66.2 °F - 64.4 °F 94% 29.78 in 9.0 mi SSE 8.1 mph - N/A   Partly Cloudy
9:51 PM 66.9 °F - 64.9 °F 93% 29.78 in 9.0 mi SSE 9.2 mph - N/A   Scattered Clouds
10:07 PM 66.2 °F - 64.4 °F 94% 29.78 in 9.0 mi SE 8.1 mph - N/A   Mostly Cloudy
10:45 PM 66.2 °F - 64.4 °F 94% 29.77 in 4.0 mi SE 8.1 mph - N/A   Scattered Clouds
10:51 PM 66.0 °F - 64.9 °F 96% 29.77 in 4.0 mi SSE 8.1 mph - N/A   Partly Cloudy
11:51 PM 66.9 °F - 66.0 °F 97% 29.74 in 10.0 mi South 15.0 mph - N/A   Partly Cloudy